Regional Weather Roundup
Issued by NWS

Home | Current Version | Previous Version | Text Only | Print | Product List | Glossary Off
Versions: 1 2 3 4 5 6 7 8 9 10 11 12 13 14 15 16 17 18 19 20 21 22 23 24 25 26 27 28 29 30 31 32 33 34 35 36 37 38 39 40 41 42 43 44 45 46 47 48 49

000
ASUS45 KCYS 012310
RWRWY

WYOMING REGIONAL WEATHER ROUNDUP
NATIONAL WEATHER SERVICE CHEYENNE WY
500 PM MDT WED OCT 01 2014

NOTE:  "FAIR" INDICATES FEW OR NO CLOUDS BELOW 12,000 FEET
WITH NO SIGNIFICANT WEATHER AND/OR OBSTRUCTIONS TO VISIBILITY.

WYZ001-020000-
YELLOWSTONE NATIONAL PARK

CITY           SKY/WX    TMP DP  RH WIND       PRES   REMARKS
LK YELLOWSTONE   N/A     35  29  78 NW7       30.10R WCI  29
W YELLOWSTONE  NOT AVBL

$$
WYZ002>013-054>058-071-098>099-020000-
NORTHERN WYOMING

CITY           SKY/WX    TMP DP  RH WIND       PRES   REMARKS
JACKSON        PTSUNNY   43  30  61 W13G18    30.09R
CODY           MOSUNNY   52  34  50 NW3       29.99R
GREYBULL       PTSUNNY   56  33  42 N13       29.96R
WORLAND        PTSUNNY   53  38  56 SW12      29.98R
SHERIDAN       CLOUDY    54  35  48 NW15      29.96R
BUFFALO        PTSUNNY   51  33  50 N10       29.98S
GILLETTE       CLOUDY    51  37  58 NW8       29.95R
HULETT         MOCLDY    52  37  58 W7        29.95
NEWCASTLE      FAIR      48  37  66 NW9       29.95

$$
WYZ014>020-022>026-101>103-020000-
CENTRAL WYOMING

CITY           SKY/WX    TMP DP  RH WIND       PRES   REMARKS
BIG PINEY      CLOUDY    45  26  47 N16G23    30.06R
PINEDALE       MOCLDY    45  28  53 NW16G24   30.05R
DUBOIS         FAIR      41  23  48 NW14G21   30.03R
LANDER         LGT RAIN  37  36  96 W8        30.06R FOG     WCI  31
RIVERTON       CLOUDY    45  35  68 CALM      30.05R
CASPER         LGT RAIN  41  38  89 N12       30.02R FOG
DOUGLAS        CLOUDY    46  40  79 N10       30.00R

$$
WYZ021-027>030-104>119-020000-
SOUTHERN WYOMING

CITY           SKY/WX    TMP DP  RH WIND       PRES   REMARKS
EVANSTON       FLURRIES  38  33  82 N16       30.13R WCI  29
KEMMERER       PTCLDY    45  27  49 W21       30.10R
FORT BRIDGER   FAIR      43  35  72 W18       30.13S
ROCK SPRINGS   NOT AVBL
DIXON          CLOUDY    38  36  89 SE8       30.09S WCI  33
RAWLINS        PTSUNNY   50  21  32 W14       29.99S
SARATOGA       CLOUDY    39  32  75 W14G23    30.04R WCI  31
LARAMIE        MOSUNNY   43  32  65 CALM      29.98F
CHEYENNE       CLOUDY    40  35  83 N10       29.98F WCI  33
TORRINGTON     LGT RAIN  50  43  77 NW16G24   29.95R
PINE BLUFFS    RAIN      43  41  93 NW17G23   29.98R

$$


USA.gov is the U.S. government's official web portal to all federal, state and local government web resources and services.